| time (UTC) | temp C | wind direction | speed KPH | gust KPH | rain 1hr cm | rain 24hr cm | rain mn cm | humidity % | barometer mb |
| 20260904021520 | 33 | 140 | 6.4 | 11.3 | 0.00 | 0.00 | 0.00 | 30 | 996.3 |
| 20260904020026 | 33 | 237 | 3.2 | 8.0 | 0.00 | 0.00 | 0.00 | 30 | 996.1 |
| 20260904014532 | 33 | 267 | 9.7 | 14.5 | 0.00 | 0.00 | 0.00 | 31 | 995.9 |
| 20260904013049 | 33 | 252 | 8.0 | 12.9 | 0.00 | 0.00 | 0.00 | 32 | 995.8 |
| 20260904011606 | 33 | 265 | 4.8 | 6.4 | 0.00 | 0.00 | 0.00 | 33 | 995.6 |
| 20260904010059 | 33 | 317 | 4.8 | 9.7 | 0.00 | 0.00 | 0.00 | 32 | 995.6 |
| 20260904004548 | 33 | 296 | 6.4 | 14.5 | 0.00 | 0.00 | 0.00 | 33 | 995.5 |
| 20260904003054 | 34 | 268 | 11.3 | 19.3 | 0.00 | 0.00 | 0.00 | 31 | 995.6 |
| 20260904001531 | 35 | 344 | 8.0 | 14.5 | 0.00 | 0.00 | 0.00 | 29 | 995.5 |
| 20260904000039 | 35 | 341 | 11.3 | 16.1 | 0.00 | 0.00 | 0.00 | 29 | 995.3 |
| 20260903234539 | 36 | 18 | 6.4 | 16.1 | 0.00 | 0.00 | 0.00 | 27 | 995.3 |
| 20260903231559 | 36 | 311 | 14.5 | 22.5 | 0.00 | 0.00 | 0.00 | 28 | 995.5 |
| 20260903230057 | 36 | 146 | 11.3 | 25.7 | 0.00 | 0.00 | 0.00 | 28 | 995.4 |
| 20260903224558 | 35 | 182 | 17.7 | 24.1 | 0.00 | 0.00 | 0.00 | 28 | 995.6 |
| 20260903223035 | 34 | 167 | 30.6 | 40.2 | 0.00 | 0.00 | 0.00 | 30 | 995.7 |
| 20260903221508 | 34 | 149 | 40.2 | 56.3 | 0.00 | 0.00 | 0.00 | 31 | 995.6 |
| 20260903220009 | 36 | 212 | 14.5 | 24.1 | 0.00 | 0.00 | 0.00 | 27 | 995.7 |
| 20260903214508 | 35 | 279 | 19.3 | 29.0 | 0.00 | 0.00 | 0.00 | 28 | 995.6 |
| 20260903213033 | 34 | 306 | 25.7 | 33.8 | 0.00 | 0.00 | 0.00 | 30 | 995.8 |
| 20260903211519 | 34 | 296 | 29.0 | 43.5 | 0.00 | 0.00 | 0.00 | 30 | 996.1 |
| 20260903210014 | 36 | 304 | 17.7 | 40.2 | 0.00 | 0.00 | 0.00 | 28 | 996.1 |
| 20260903204519 | 36 | 205 | 16.1 | 27.4 | 0.00 | 0.00 | 0.00 | 25 | 996.1 |
| 20260903203011 | 36 | 221 | 11.3 | 20.9 | 0.00 | 0.00 | 0.00 | 25 | 996.2 |
| 20260903201502 | 36 | 334 | 19.3 | 22.5 | 0.00 | 0.00 | 0.00 | 27 | 996.3 |
| 20260903200101 | 36 | 232 | 9.7 | 24.1 | 0.00 | 0.00 | 0.00 | 26 | 996.6 |
| 20260903194559 | 36 | 146 | 11.3 | 19.3 | 0.00 | 0.00 | 0.00 | 25 | 996.8 |
| 20260903191600 | 36 | 252 | 17.7 | 22.5 | 0.00 | 0.00 | 0.00 | 27 | 997.3 |
| 20260903190051 | 36 | 46 | 6.4 | 16.1 | 0.00 | 0.00 | 0.00 | 27 | 997.7 |
| 20260903184551 | 35 | 211 | 9.7 | 32.2 | 0.00 | 0.00 | 0.00 | 28 | 998.0 |
| 20260903181556 | 35 | 324 | 8.0 | 30.6 | 0.00 | 0.00 | 0.00 | 29 | 998.7 |
| 20260903180056 | 35 | 234 | 12.9 | 29.0 | 0.00 | 0.00 | 0.00 | 30 | 999.1 |
| 20260903174540 | 34 | 281 | 12.9 | 24.1 | 0.00 | 0.00 | 0.00 | 30 | 999.1 |
| 20260903171558 | 33 | 241 | 22.5 | 32.2 | 0.00 | 0.00 | 0.00 | 31 | 999.4 |
| 20260903170055 | 33 | 237 | 17.7 | 32.2 | 0.00 | 0.00 | 0.00 | 32 | 999.5 |
| 20260903164551 | 33 | 262 | 20.9 | 37.0 | 0.00 | 0.00 | 0.00 | 32 | 999.5 |
| 20260903161504 | 32 | 270 | 17.7 | 33.8 | 0.00 | 0.00 | 0.00 | 35 | 999.6 |
| 20260903160101 | 32 | 233 | 22.5 | 30.6 | 0.00 | 0.00 | 0.00 | 36 | 999.6 |
| 20260903154600 | 31 | 225 | 17.7 | 29.0 | 0.00 | 0.00 | 0.00 | 37 | 999.6 |
| 20260903151551 | 31 | 238 | 19.3 | 30.6 | 0.00 | 0.00 | 0.00 | 38 | 999.7 |
| 20260903150049 | 30 | 247 | 24.1 | 30.6 | 0.00 | 0.00 | 0.00 | 39 | 999.7 |
| 20260903144605 | 30 | 254 | 19.3 | 25.7 | 0.00 | 0.00 | 0.00 | 40 | 999.9 |
| 20260903141548 | 29 | 238 | 17.7 | 25.7 | 0.00 | 0.00 | 0.00 | 42 | 999.9 |
| 20260903140045 | 28 | 234 | 19.3 | 24.1 | 0.00 | 0.00 | 0.00 | 44 | 999.9 |
| 20260903134536 | 27 | 238 | 20.9 | 24.1 | 0.00 | 0.00 | 0.00 | 46 | 999.9 |
| 20260903131534 | 26 | 255 | 19.3 | 24.1 | 0.00 | 0.00 | 0.00 | 49 | 999.6 |
| 20260903130032 | 26 | 252 | 19.3 | 22.5 | 0.00 | 0.00 | 0.00 | 48 | 999.6 |
| 20260903124530 | 26 | 254 | 22.5 | 27.4 | 0.00 | 0.00 | 0.00 | 48 | 999.3 |
| 20260903121533 | 25 | 257 | 19.3 | 22.5 | 0.00 | 0.00 | 0.00 | 48 | 999.1 |
| 20260903120039 | 26 | 269 | 19.3 | 22.5 | 0.00 | 0.00 | 0.00 | 47 | 999.1 |
| 20260903114525 | 26 | 270 | 16.1 | 20.9 | 0.00 | 0.00 | 0.00 | 47 | 998.8 |
| 20260903111531 | 26 | 254 | 17.7 | 19.3 | 0.00 | 0.00 | 0.00 | 48 | 998.7 |
| 20260903110031 | 25 | 277 | 12.9 | 19.3 | 0.00 | 0.00 | 0.00 | 49 | 998.8 |
| 20260903104549 | 25 | 226 | 9.7 | 12.9 | 0.00 | 0.00 | 0.00 | 50 | 998.7 |
| 20260903101526 | 25 | 209 | 11.3 | 16.1 | 0.00 | 0.00 | 0.00 | 50 | 998.6 |
| 20260903100043 | 26 | 200 | 17.7 | 20.9 | 0.00 | 0.00 | 0.00 | 48 | 998.7 |
| 20260903094547 | 27 | 198 | 14.5 | 19.3 | 0.00 | 0.00 | 0.00 | 47 | 998.8 |
| 20260903091516 | 27 | 203 | 14.5 | 17.7 | 0.00 | 0.00 | 0.00 | 45 | 998.8 |
| 20260903090009 | 27 | 209 | 16.1 | 17.7 | 0.00 | 0.00 | 0.00 | 45 | 998.9 |
| 20260903084508 | 27 | 207 | 14.5 | 19.3 | 0.00 | 0.00 | 0.00 | 44 | 998.8 |
| 20260903081507 | 27 | 200 | 16.1 | 17.7 | 0.00 | 0.00 | 0.00 | 43 | 999.0 |
| 20260903080007 | 28 | 198 | 14.5 | 17.7 | 0.00 | 0.00 | 0.00 | 42 | 999.2 |
| 20260903074506 | 28 | 186 | 12.9 | 16.1 | 0.00 | 0.00 | 0.00 | 42 | 999.2 |
| 20260903071507 | 29 | 216 | 9.7 | 12.9 | 0.00 | 0.00 | 0.00 | 40 | 999.2 |
| 20260903070004 | 28 | 195 | 8.0 | 11.3 | 0.00 | 0.00 | 0.00 | 41 | 999.2 |
| 20260903064502 | 29 | 168 | 14.5 | 20.9 | 0.00 | 0.00 | 0.00 | 41 | 999.3 |
| 20260903061506 | 28 | 216 | 11.3 | 14.5 | 0.00 | 0.00 | 0.00 | 42 | 999.3 |
| 20260903060002 | 30 | 193 | 12.9 | 16.1 | 0.00 | 0.00 | 0.00 | 40 | 999.5 |
| 20260903054502 | 30 | 189 | 16.1 | 19.3 | 0.00 | 0.00 | 0.00 | 40 | 999.5 |
| 20260903051502 | 29 | 198 | 14.5 | 17.7 | 0.00 | 0.00 | 0.00 | 42 | 999.5 |
| 20260903050100 | 29 | 208 | 14.5 | 16.1 | 0.00 | 0.00 | 0.00 | 42 | 999.5 |
| 20260903044601 | 29 | 219 | 12.9 | 16.1 | 0.00 | 0.00 | 0.00 | 43 | 999.5 |
| 20260903041605 | 30 | 214 | 12.9 | 17.7 | 0.00 | 0.00 | 0.00 | 37 | 999.6 |
| 20260903040058 | 30 | 210 | 12.9 | 16.1 | 0.00 | 0.00 | 0.00 | 38 | 999.5 |
| 20260903034556 | 30 | 207 | 14.5 | 16.1 | 0.00 | 0.00 | 0.00 | 37 | 999.4 |
| 20260903031559 | 31 | 214 | 14.5 | 19.3 | 0.00 | 0.00 | 0.00 | 37 | 999.2 |
| 20260903030058 | 31 | 209 | 19.3 | 27.4 | 0.00 | 0.00 | 0.00 | 36 | 999.0 |
| 20260903024604 | 31 | 193 | 20.9 | 27.4 | 0.00 | 0.05 | 0.00 | 39 | 998.8 |